Find Starlink 32301

NORAD ID: 61664 Int'l Des: 2024-193 Owner: SPXS Country: US Constellation: starlink operational
LEOCIRCULAR

当前视图

正在加载3D地球...

About Starlink 32301

Starlink 32301 (NORAD 61664) is a starlink constellation satellite (v2 mini) launched Oct 26, 2024 by SPXS of US. It operates in LEO, CIRCULAR orbit with a mass of 730.00 kg.

即将过境

Passes for default location (London). Set your location on the main map for personalized predictions.

高度历史

Loading altitude history...

两行轨道根数

1 61664U 24193D 26264.03876835 -.00000008 00000-0 11527-4 0 9991
2 61664 53.1603 262.3464 0001435 80.5451 279.5712 15.31700693106450
Epoch: Sep 21, 2026 • Age: 12 hours

当前状态

高度 471.5 km
远地点 / 近地点 N/A
速度 7.63 km/s
星下点 26.50°N, 130.03°W
发射日期 Oct 26, 2024
运行时间 1.9 years
类型 internet

技术详情

分类 Payload
质量 730.00 kg
干质量 700.00 kg
长度 0.30 m
跨度 29.00 m
形状 ? Box + pan
制造商 SPXS
平台类型 Starlink V2M
阶段状态 In Orbit
所有者/国家 SPXS/US

Most Searched